Weather History for KTMB - January, 2013

Change the Weather History Date:

Thursday, January 3, 2013

  Actual Average (KMIA) Record (KMIA)
Temperature  
Mean Temperature 73 °F 68 °F  
Max Temperature 82 °F 76 °F 86 °F (1967)
Min Temperature 64 °F 60 °F 35 °F (1898)
Degree Days  
Heating Degree Days 0 2  
Month to date heating degree days 6  
Since 1 July heating degree days 43  
Cooling Degree Days 8 5  
Month to date cooling degree days 15  
Year to date cooling degree days 15  
Growing Degree Days 23 (Base 50)    
Moisture  
Dew Point 65 °F    
Average Humidity 85    
Maximum Humidity 100    
Minimum Humidity 52    
Precipitation  
Precipitation 0.00 in 0.05 in 1.35 in (1958)
Month to date precipitation 0.15  
Year to date precipitation 0.15  
Snow  
Snow 0.00 in - - ()
Month to date snowfall  
Since 1 July snowfall  
Snow Depth -    
Sea Level Pressure  
Sea Level Pressure 30.09 in    
Wind  
Wind Speed 2 mph (SSE)    
Max Wind Speed 10 mph    
Max Gust Speed -    
Visibility 7 miles    
Events Fog    
T = Trace of Precipitation, MM = Missing Value Source: NWS Daily Summary

Daily Weather History Graph

Daily Weather History Graph

Search for Another Location

Airport or City:

Trip Planner

Search our weather history database for the weather conditions in past years. The results will help you decide how hot, cold, wet, or windy it might be!

Date:

Astronomy

Jan. 03, 2013 Rise Set
Actual Time 7:08 AM EST 5:44 PM EST
Civil Twilight 6:43 AM EST 6:09 PM EST
Nautical Twilight 6:15 AM EST 6:37 PM EST
Astronomical Twilight 5:47 AM EST 7:05 PM EST
Moon 11:35 PM EST (1/3) 10:57 AM EST (1/3)
Length of Visible Light 11h 25m
Length of Day
10h 35m
Waning Gibbous, 65% of the Moon is Illuminated
Jan 3
Waning Gibbous
Jan 4
Last Quarter
Jan 11
New
Jan 18
First Quarter
Jan 26
Full

Hourly Weather History & Observations

Time (EST) Temp. Heat Index Dew Point Humidity Pressure Visibility Wind Dir Wind Speed Gust Speed Precip Events Conditions
12:53 AM 66.0 °F - 66.0 °F 100% 30.06 in 10.0 mi Calm Calm - N/A   Overcast
1:53 AM 66.0 °F - 64.9 °F 96% 30.06 in 10.0 mi Calm Calm - N/A   Mostly Cloudy
2:53 AM 66.2 °F - 66.2 °F 100% 30.05 in 9.0 mi Calm Calm - N/A   Mostly Cloudy
3:53 AM 68.0 °F - 66.9 °F 96% 30.06 in 10.0 mi Calm Calm - N/A   Scattered Clouds
4:41 AM 66.2 °F - 66.2 °F 100% 30.06 in 1.5 mi Calm Calm - N/A   Scattered Clouds
4:43 AM 66.2 °F - 66.2 °F 100% 30.06 in 0.8 mi Calm Calm - N/A   Scattered Clouds
4:53 AM 64.9 °F - 64.0 °F 97% 30.06 in 0.8 mi NNW 3.5 mph - N/A   Mostly Cloudy
4:57 AM 64.4 °F - 64.4 °F 100% 30.06 in 2.0 mi NW 4.6 mph - N/A   Mostly Cloudy
5:06 AM 64.4 °F - 62.6 °F 94% 30.06 in 8.0 mi Calm Calm - N/A   Overcast
5:53 AM 68.0 °F - 66.9 °F 96% 30.07 in 10.0 mi Calm Calm - N/A   Mostly Cloudy
6:53 AM 66.0 °F - 64.9 °F 96% 30.09 in 8.0 mi Calm Calm - N/A   Scattered Clouds
7:23 AM 66.2 °F - 66.2 °F 100% 30.10 in 0.8 mi Variable 3.5 mph - N/A   Clear
7:40 AM 64.4 °F - 64.4 °F 100% 30.10 in 0.5 mi Variable 3.5 mph - N/A Fog Fog
7:44 AM 64.4 °F - 64.4 °F 100% 30.11 in 1.2 mi Calm Calm - N/A   Partly Cloudy
7:53 AM 66.0 °F - 64.9 °F 96% 30.11 in 1.5 mi Calm Calm - N/A   Clear
7:57 AM 66.2 °F - 66.2 °F 100% 30.11 in 3.0 mi Calm Calm - N/A   Clear
8:53 AM 73.0 °F - 68.0 °F 84% 30.12 in 10.0 mi Calm Calm - N/A   Scattered Clouds
9:53 AM 79.0 °F - 68.0 °F 69% 30.12 in 10.0 mi South 5.8 mph - N/A   Partly Cloudy
10:53 AM 81.0 °F 82.7 °F 64.9 °F 58% 30.12 in 10.0 mi SSE 10.4 mph - N/A   Clear
11:53 AM 82.0 °F 83.4 °F 64.0 °F 54% 30.09 in 10.0 mi Variable 6.9 mph - N/A   Partly Cloudy
12:53 PM 81.0 °F 82.5 °F 64.0 °F 56% 30.06 in 10.0 mi SSE 6.9 mph - N/A   Mostly Cloudy
1:53 PM 82.9 °F 84.4 °F 64.0 °F 53% 30.05 in 10.0 mi SSE 8.1 mph - N/A   Scattered Clouds
2:53 PM 82.0 °F 83.4 °F 64.0 °F 54% 30.04 in 10.0 mi SE 8.1 mph - N/A   Partly Cloudy
3:53 PM 81.0 °F 81.9 °F 62.1 °F 52% 30.06 in 10.0 mi SSE 10.4 mph - N/A   Clear
4:53 PM 78.1 °F - 64.9 °F 64% 30.07 in 10.0 mi SE 6.9 mph - N/A   Clear
5:53 PM 75.9 °F - 66.0 °F 71% 30.09 in 10.0 mi SSE 6.9 mph - N/A   Clear
6:53 PM 73.9 °F - 66.9 °F 79% 30.11 in 10.0 mi SE 4.6 mph - N/A   Clear
7:53 PM 73.0 °F - 66.9 °F 81% 30.13 in 10.0 mi SSE 3.5 mph - N/A   Clear
8:53 PM 72.0 °F - 66.9 °F 84% 30.14 in 10.0 mi Calm Calm - N/A   Clear
9:53 PM 68.0 °F - 64.9 °F 90% 30.15 in 10.0 mi Calm Calm - N/A   Clear
10:53 PM 68.0 °F - 66.0 °F 93% 30.14 in 10.0 mi Calm Calm - N/A   Clear
11:53 PM 69.1 °F - 66.9 °F 93% 30.13 in 10.0 mi SSE 4.6 mph - N/A   Clear